Location: West Dean
(50.7667°N, 0.1500°E)
Time: 08:10:03
(UTC+00:00)

Daily predictions for brighter satellites

Satellite Brightness Start Highest point End
(mag) Time Altitude Azimuth Time Altitude Azimuth Time Altitude Azimuth
ERS-1 Rocket 3.5 20:20:03 10° SE 20:24:51 47° ENE 20:29:40 10° N
ATLAS 2AS CENTAUR R/B 2.9 20:18:07 10° SW 20:25:30 84° SE 20:32:38 10° NE
MOS 1 4.4 20:19:53 10° SSE 20:25:34 87° ENE 20:31:16 10° NNW
USA 59 Rocket 2.3 20:27:20 10° NNW 20:29:00 13° NNE 20:30:50 10° NE
SPOT 3 Rocket 4.4 20:24:56 10° SE 20:29:38 37° ENE 20:34:21 10° N
Cosmos 1782 2.8 20:26:23 10° S 20:30:11 85° W 20:34:02 10° N
IRS-1A Rocket 4.4 20:26:43 10° SSE 20:32:20 70° ENE 20:37:53 10° NNW
Cosmos 1943 Rocket 3.0 20:28:09 10° NW 20:33:36 49° WSW 20:39:00 10° S
USA 281 3.8 20:28:22 10° SE 20:34:40 50° NE 20:40:59 10° NNW
Cosmos 1420 Rocket 4.1 20:29:21 10° NNW 20:34:41 75° ENE 20:39:59 10° SSE
Cosmos 1743 3.4 20:34:39 10° N 20:38:00 34° ENE 20:41:20 10° SE
Cosmos 2278 Rocket 3.9 20:33:23 10° NW 20:38:11 29° WSW 20:42:58 10° SSW
ISS -3.6 20:35:38 10° W 20:38:58 74° N 20:42:18 10° E
NOSS 3-1 (A) 4.2 20:31:50 10° NW 20:39:00 75° SW 20:47:45 10° SSE
Cosmos 972 4.3 20:35:42 10° S 20:40:33 70° ESE 20:45:31 10° NNE
USA 245 2.4 20:42:40 11° SE 20:44:44 43° ENE 20:46:54 10° N
Cosmos 2297 3.9 20:39:59 10° NNW 20:45:45 70° ENE 20:51:24 10° SE
Cosmos 1634 Rocket 4.3 20:40:12 10° N 20:46:23 53° ENE 20:52:29 10° SSE
Cosmos 2112 Rocket 4.2 20:44:51 10° S 20:50:00 52° ESE 20:55:09 10° NNE
USA 290 2.6 20:47:02 10° NNW 20:50:14 59° WSW 20:53:24 10° SSE
Cosmos 1766 Rocket 3.8 20:46:46 10° N 20:51:10 58° ENE 20:55:32 10° SSE
Okean-O 3.6 20:48:03 10° S 20:52:17 46° W 20:56:33 10° NNW
USA 229 DEB 4.1 20:46:39 10° NW 20:53:55 71° NE 21:01:46 10° SE
USA 229 4.2 20:46:45 10° NW 20:54:01 71° NE 21:01:53 10° SE
Cosmos 2034 Rocket 4.2 20:49:13 10° NNW 20:55:25 78° W 21:01:40 10° S
Cosmos-2242 4.3 20:52:18 10° SW 20:56:18 42° WNW 21:00:22 10° N
Cosmos 1726 3.4 20:54:01 10° NNE 20:56:31 21° ENE 20:58:35 12° ESE
Spot 2 Rocket 3.6 20:54:09 10° SSE 20:59:08 70° ENE 21:04:09 10° N
Cosmos 1680 Rocket 3.5 20:54:57 10° SSW 21:00:12 73° ESE 21:05:29 10° NNE
USA 32 4.1 21:01:52 10° S 21:07:00 63° E 21:12:11 10° NNE
Cosmos 1933 4.5 21:05:14 10° SSW 21:09:01 43° WNW 21:12:50 10° N
Tsikada Rocket 4.0 21:03:15 10° S 21:09:24 77° E 21:15:41 10° NNE
CZ-4C R/B 4.2 21:06:48 10° N 21:10:21 48° WNW 21:14:02 10° SW
USA 276 1.5 21:11:59 10° W 21:14:08 47° SSW 21:15:14 23° SE
MetOp-A 4.2 21:11:24 14° SE 21:14:55 47° ENE 21:19:30 10° N
Cosmos 2263 4.4 21:09:34 10° NNW 21:15:15 68° ENE 21:20:00 15° SE
SL-16 R/B 2.2 21:09:54 10° SSW 21:15:33 78° ESE 21:21:16 10° NNE
MOS 1 Rocket 3.5 21:13:56 13° SSE 21:18:23 77° ENE 21:23:40 10° N
Cosmos 2056 Rocket 3.9 21:13:12 10° NNW 21:18:34 62° WSW 21:23:28 12° S
Lacrosse 5 2.9 21:14:36 10° WNW 21:19:15 36° SW 21:23:08 14° SSE
Cosmos 1536 3.6 21:16:10 10° N 21:19:46 35° ENE 21:22:15 17° SE
Cosmos 1624 Rocket 4.4 21:15:47 10° NNW 21:20:54 60° WSW 21:25:35 12° S
Lacrosse 5 rocket 1.4 21:16:50 10° WSW 21:21:09 90° NNW 21:25:23 10° ENE
Ariane Rocket 3.1 21:16:49 12° SSE 21:21:34 81° WSW 21:26:41 10° NNW
Cosmos 1452 Rocket 3.9 21:17:35 10° NNW 21:22:43 52° ENE 21:26:45 16° SE
Cosmos 1408 Rocket 4.2 21:18:55 10° N 21:23:10 42° ENE 21:26:12 17° SE
Cosmos 44 3.7 21:18:27 10° NW 21:23:11 51° WSW 21:26:45 15° SSE
Spot 1 4.3 21:20:37 10° NNE 21:24:32 45° E 21:27:37 15° S
Cosmos 1340 4.4 21:24:42 10° NNE 21:27:03 17° ENE 21:28:49 12° E
Cosmos 2369 Rocket 2.2 21:22:19 10° NNW 21:27:56 80° WSW 21:32:23 17° SSE
Cosmos 2221 2.8 21:23:51 10° SSW 21:28:09 69° WNW 21:32:29 10° N
Cosmos 2084 3.6 21:27:52 10° NW 21:31:31 48° SW 21:33:53 20° SSE
FALCON 9 R/B 4.4 21:28:56 10° SW 21:34:56 31° SSE 21:51:06 10° ESE
USA 306 3.1 21:37:22 10° WNW 21:41:09 60° NNE 21:45:01 10° E
Cosmos 2237 Rocket 4.3 21:37:57 10° WSW 21:42:58 31° NW 21:48:01 10° NNE
Cosmos 921 Rocket 3.1 21:38:38 10° SSW 21:43:06 87° WNW 21:47:38 10° NNE
Okean 3 Rocket 3.7 21:40:28 10° NNW 21:44:53 75° W 21:48:05 18° S
GEOS 3 Rocket 3.5 21:41:19 10° NE 21:46:33 84° SE 21:51:41 10° SW
ATLAS 3B R/B 4.0 21:43:47 10° NW 21:50:50 37° WSW 21:57:02 13° S
Landsat 5 3.1 21:48:28 10° NNE 21:52:16 79° ESE 21:54:55 19° S
SL-8 R/B 4.4 21:49:55 10° SSW 21:54:03 30° SSE 21:58:13 10° E
Cosmos 1500 Rocket 3.6 21:51:16 10° N 21:55:35 64° ENE 21:57:58 25° SSE
Terra 3.1 21:52:41 10° SSW 21:56:58 34° W 22:01:17 10° NNW
Cosmos 1733 3.5 21:55:17 10° N 21:58:43 45° ENE 22:00:07 28° SE
Cosmos 1943 3.3 21:53:57 13° S 21:58:56 58° ESE 22:04:29 10° NE
USA 234 3.9 21:55:37 10° E 22:02:01 58° NNE 22:08:24 10° WNW
Cosmos 1048 Rocket 3.9 21:59:01 14° SSW 22:03:25 70° ESE 22:08:32 10° NNE
Cosmos 1805 Rocket 3.6 22:00:08 10° N 22:04:30 65° ENE 22:06:48 27° SSE
H-2A R/B 3.6 22:02:30 20° ESE 22:04:40 33° ENE 22:08:27 10° N
Cosmos 1842 Rocket 3.9 22:01:41 13° SSW 22:05:35 67° WNW 22:10:02 10° N
Cosmos 494 Rocket 4.0 22:01:30 10° SSW 22:06:36 84° WNW 22:11:46 10° NNE
Lacrosse 4 Rocket 3.6 22:03:41 10° NNW 22:06:40 19° NE 22:09:41 10° E
Meteor 1-10 Rocket 4.2 22:02:23 15° S 22:07:11 85° E 22:12:53 10° NNE
Cosmos 1151 Rocket 3.8 22:08:37 26° SE 22:10:21 38° E 22:14:23 10° NNE
Meteor 2-9 Rocket 4.3 22:05:22 10° NNW 22:11:12 85° E 22:14:56 24° SSE
Cosmos 1302 Rocket 4.3 22:09:00 10° NNW 22:14:09 58° ENE 22:17:13 24° SE
Meteor 1-11 Rocket 3.8 22:08:50 10° NNW 22:14:27 74° W 22:18:13 22° S
ISS -3.8 22:12:20 10° WNW 22:15:38 60° SSW 22:16:32 41° SE
Cosmos 1633 Rocket 4.4 22:12:11 10° N 22:16:02 28° ENE 22:18:08 19° ESE
Meteor 2-10 4.1 22:10:43 10° NNW 22:16:23 90° ENE 22:19:41 25° S
ATLAS 2AS CENTAUR R/B 4.2 22:10:21 10° W 22:17:07 40° NNW 22:23:39 10° NE
Meteor 1-19 Rocket 4.4 22:14:07 22° S 22:18:01 67° E 22:23:48 10° NNE
ARIANE 5 R/B 2.7 22:16:04 28° SE 22:18:13 66° ENE 22:22:31 10° N
Cosmos 1340 Rocket 3.1 22:17:22 32° SSE 22:18:49 49° E 22:22:42 10° NNE
USA 281 3.9 22:14:24 17° S 22:19:14 44° WSW 22:25:31 10° NW
USA 59 Rocket 0.8 22:15:59 10° NNW 22:19:28 43° NE 22:22:59 15° ESE
Cosmos 1331 Rocket 4.2 22:15:03 10° NNW 22:20:17 66° WSW 22:23:13 26° S
NOSS 2-1 (E) 4.3 22:16:50 10° NW 22:20:20 43° NE 22:23:50 16° ESE
MINOTAUR 4 R/B 3.9 22:19:08 10° NNE 22:22:02 46° E 22:22:22 44° ESE
Cosmos 1110 Rocket 4.3 22:16:56 10° NNW 22:22:10 60° WSW 22:25:12 25° S
BREEZE-M DEB (TANK) 4.3 22:18:43 10° WSW 22:22:42 75° SSE 22:40:16 10° E
CZ-2C R/B 3.8 22:20:50 10° NNE 22:25:21 58° E 22:27:22 30° SSE
Cosmos 1726 3.6 22:27:06 10° NW 22:29:42 24° W 22:31:07 17° SW
NOSS 2-1 (D) 3.9 22:28:25 10° NW 22:31:59 54° NE 22:34:55 21° ESE
Nadezhda 4 Rocket 3.9 22:30:38 22° S 22:34:48 86° E 22:41:05 10° N
Cosmos 1805 3.1 22:35:19 10° N 22:39:02 73° E 22:40:09 42° SSE
IRIDIUM 106 4.3 22:36:56 10° N 22:42:11 77° E 22:44:45 31° SSE
Cosmos 1743 Rocket 4.0 22:41:38 10° NNW 22:45:55 54° W 22:47:56 29° SSW
Sich 1 3.8 22:46:24 10° NNW 22:50:34 44° W 22:52:35 26° SSW
Spot 2 4.5 22:50:57 32° SE 22:52:58 62° ENE 22:57:44 10° N
Cosmos 1975 2.7 22:52:01 10° N 22:55:59 87° E 22:57:09 45° SSE
Lacrosse 5 rocket 2.9 22:55:53 10° W 22:59:53 38° NNW 23:03:47 10° ENE
SL-16 R/B 4.3 22:55:34 10° W 23:00:18 26° NW 23:05:05 10° NNE
Cosmos 1340 3.3 22:58:18 10° NNW 23:01:28 37° W 23:02:14 32° SW
Cosmos 1603 3.8 22:57:29 17° SW 23:01:58 79° WNW 23:07:43 10° NNE
Cosmos 1626 2.1 23:04:41 48° ESE 23:04:50 49° E 23:08:00 10° NNE
PSLV R/B 4.1 23:02:39 10° N 23:06:44 69° WNW 23:08:26 33° SSW
NOSS 2-1 (C) 3.4 23:03:30 10° NW 23:07:13 85° SW 23:09:08 35° SE
USA 267 3.5 23:01:07 10° ENE 23:07:21 45° SE 23:10:42 26° SSW
Cosmos 1674 4.1 23:07:50 21° E 23:08:05 21° E 23:10:48 10° NE
Meteor 1-27 Rocket 4.3 23:04:40 17° SW 23:08:42 51° WNW 23:14:07 10° N
Cosmos 1627 Rocket 4.5 23:05:12 29° S 23:08:43 83° E 23:15:04 10° N
Cosmos 2369 Rocket 4.3 23:08:07 10° WNW 23:11:03 15° W 23:13:59 10° SW
USA 306 2.7 23:11:09 10° WNW 23:14:58 53° SSW 23:15:15 52° SSW
Cosmos 2026 Rocket 4.0 23:12:23 28° S 23:15:56 88° W 23:22:15 10° N
Cosmos 1833 Rocket 4.0 23:17:10 21° SE 23:18:36 23° ESE 23:22:57 10° NE
NOSS 3-3 (C) 4.5 23:26:06 30° SSE 23:27:32 35° ESE 23:33:10 10° NE
Cosmos 220 Rocket 3.9 23:30:05 45° S 23:31:22 77° ESE 23:35:43 10° NNE
Cosmos 1515 Rocket 3.9 23:31:37 40° SE 23:32:45 53° E 23:36:59 10° NNE
Cosmos 1328 Rocket 3.6 23:33:11 40° SSW 23:34:40 73° WNW 23:39:02 10° N
SL-8 R/B 3.6 23:31:19 10° WSW 23:36:01 62° S 23:40:44 10° E
Cosmos 1553 Rocket 3.9 23:30:37 10° N 23:36:44 89° WSW 23:39:39 33° S
Meteor 1-18 Rocket 4.4 23:33:57 30° SSW 23:37:04 78° WNW 23:43:03 10° N
ALOS 2 2.8 23:36:13 41° SSW 23:37:32 62° W 23:41:54 10° NNW
Spot 4 4.4 23:37:28 33° SSW 23:39:07 46° W 23:43:42 10° NNW
H-2A R/B 3.7 23:38:30 26° SW 23:39:37 30° W 23:43:20 10° NNW
Cosmos 1470 Rocket 3.6 23:35:57 10° NNW 23:40:26 74° W 23:41:47 44° S
USA 234 3.2 23:38:50 13° SE 23:44:54 81° SSW 23:51:30 10° WNW
Lacrosse 4 Rocket 1.2 23:41:23 10° NW 23:45:28 81° WSW 23:46:29 50° SSE
Meteor 2-4 Rocket 4.2 23:42:30 25° SW 23:45:56 58° WNW 23:51:49 10° N
NOSS 8 (A) 4.2 23:46:21 63° SW 23:46:51 86° SE 23:49:56 10° NE
Cosmos 1633 Rocket 4.1 23:49:46 10° NNW 23:53:49 36° W 23:55:08 29° SW
